Track ONEWEB-0292 now! 10-day predictions ONEWEB-0292 is classified as:
1 49186U 21083A 22226.50555814 .00000048 00000-0 97693-4 0 9999 2 49186 87.8948 238.8768 0002014 95.7915 264.3444 13.13470139 48088